UAE7MY OMDB-YPPH

Flight info

Callsign UAE7MY
Flight time N/A
Altitude 35000
Route ANVIX L223 TARDI N629 GIDAN P570 KITAL L894 BIBGO DCT LAVOX/N0497F370 DCT KADAP DCT 0500S08730E DCT BEBIM/N0489F390 DCT 15S100E 18S105E DCT WONSA DCT CAR B469 TOPIR/N0488F400 L514 AVPAL Q38 JULIM
Aircraft A359/H-SDE2E3GHIJ3J4J5LM1ORWXY/LB1D1

Departure

Time N/A
Airport Dubai International Airport (OMDB)

Arrival

Time 2026-04-29 00:38
Airport Perth International Airport (YPPH)
Time Latitude Longitude Altitude Speed Heading
2026-04-28 23:03 -22.94653 111.17678 38991 ft 493 kts 136°
2026-04-28 23:04 -22.99141 111.23325 38990 ft 494 kts 136°
2026-04-28 23:04 -23.05864 111.31797 38990 ft 494 kts 136°
2026-04-28 23:05 -23.10353 111.37462 38986 ft 494 kts 136°
2026-04-28 23:05 -23.14831 111.43120 38986 ft 494 kts 136°
2026-04-28 23:06 -23.19318 111.48794 38994 ft 494 kts 136°
2026-04-28 23:06 -23.23774 111.54436 38988 ft 494 kts 136°
2026-04-28 23:07 -23.28252 111.60113 38988 ft 494 kts 136°
2026-04-28 23:07 -23.32732 111.65797 38986 ft 494 kts 136°
2026-04-28 23:08 -23.37203 111.71479 38992 ft 494 kts 136°
2026-04-28 23:08 -23.41650 111.77133 38993 ft 494 kts 136°
2026-04-28 23:09 -23.46115 111.82819 39001 ft 494 kts 136°
2026-04-28 23:09 -23.50590 111.88523 39003 ft 494 kts 136°
2026-04-28 23:10 -23.55059 111.94227 39002 ft 494 kts 136°
2026-04-28 23:10 -23.59499 111.99900 39002 ft 494 kts 136°
2026-04-28 23:11 -23.63959 112.05605 39007 ft 494 kts 136°
2026-04-28 23:11 -23.68429 112.11329 39004 ft 495 kts 136°
2026-04-28 23:12 -23.72894 112.17054 39005 ft 495 kts 136°
2026-04-28 23:12 -23.77355 112.22781 39006 ft 495 kts 136°
2026-04-28 23:13 -23.81784 112.28472 39003 ft 495 kts 136°
2026-04-28 23:13 -23.86239 112.34204 39004 ft 495 kts 136°
2026-04-28 23:14 -23.90697 112.39946 39010 ft 495 kts 136°
2026-04-28 23:14 -23.95147 112.45685 39009 ft 495 kts 136°
2026-04-28 23:15 -23.99607 112.51442 39009 ft 495 kts 136°
2026-04-28 23:15 -24.04032 112.57162 39010 ft 495 kts 136°
2026-04-28 23:16 -24.08482 112.62921 39002 ft 495 kts 136°
2026-04-28 23:16 -24.12931 112.68685 39012 ft 496 kts 136°
2026-04-28 23:17 -24.17386 112.74464 39011 ft 496 kts 136°
2026-04-28 23:17 -24.21082 112.79264 39011 ft 496 kts 136°
2026-04-28 23:18 -24.26254 112.85988 39010 ft 496 kts 136°
2026-04-28 23:18 -24.29984 112.90843 39009 ft 496 kts 136°
2026-04-28 23:19 -24.34386 112.96579 39017 ft 496 kts 136°
2026-04-28 23:19 -24.38841 113.02391 39014 ft 496 kts 136°
2026-04-28 23:20 -24.43279 113.08189 39015 ft 496 kts 136°
2026-04-28 23:20 -24.47718 113.13994 39017 ft 496 kts 136°
2026-04-28 23:21 -24.52153 113.19802 39016 ft 496 kts 136°
2026-04-28 23:21 -24.56579 113.25604 39020 ft 496 kts 136°
2026-04-28 23:22 -24.61026 113.31440 39013 ft 496 kts 136°
2026-04-28 23:22 -24.65432 113.37231 39017 ft 496 kts 136°
2026-04-28 23:23 -24.69858 113.43054 39012 ft 496 kts 136°
2026-04-28 23:23 -24.74286 113.48887 39014 ft 496 kts 136°
2026-04-28 23:24 -24.78711 113.54723 39012 ft 496 kts 136°
2026-04-28 23:24 -24.83135 113.60565 39014 ft 496 kts 136°
2026-04-28 23:25 -24.87639 113.66285 39014 ft 490 kts 143°
2026-04-28 23:25 -24.92916 113.70887 39015 ft 480 kts 152°
2026-04-28 23:26 -24.98387 113.75079 39012 ft 479 kts 153°
2026-04-28 23:26 -25.03909 113.79234 39012 ft 479 kts 153°
2026-04-28 23:27 -25.09411 113.83396 39015 ft 480 kts 153°
2026-04-28 23:27 -25.14905 113.87578 39013 ft 480 kts 153°
2026-04-28 23:28 -25.20395 113.91769 39014 ft 480 kts 153°
2026-04-28 23:28 -25.25853 113.95941 39014 ft 480 kts 153°
2026-04-28 23:29 -25.31347 114.00143 39006 ft 480 kts 153°
2026-04-28 23:29 -25.36845 114.04352 39012 ft 480 kts 153°
2026-04-28 23:30 -25.42337 114.08561 39010 ft 480 kts 153°
2026-04-28 23:30 -25.47832 114.12778 39014 ft 480 kts 153°
2026-04-28 23:31 -25.53293 114.16973 39012 ft 480 kts 153°
2026-04-28 23:31 -25.58797 114.21207 39012 ft 480 kts 153°
2026-04-28 23:32 -25.64296 114.25441 39012 ft 480 kts 153°
2026-04-28 23:32 -25.69752 114.29647 39013 ft 481 kts 153°
2026-04-28 23:33 -25.75242 114.33883 39013 ft 481 kts 153°
2026-04-28 23:33 -25.80738 114.38129 39007 ft 481 kts 153°
2026-04-28 23:34 -25.86230 114.42378 39011 ft 481 kts 154°
2026-04-28 23:34 -25.91718 114.46628 39012 ft 481 kts 154°
2026-04-28 23:35 -25.97202 114.50879 39010 ft 481 kts 154°
2026-04-28 23:35 -26.02680 114.55131 39013 ft 481 kts 154°
2026-04-28 23:36 -26.08183 114.59408 39011 ft 481 kts 154°
2026-04-28 23:36 -26.13634 114.63649 39011 ft 481 kts 154°
2026-04-28 23:37 -26.19123 114.67924 39011 ft 481 kts 154°
2026-04-28 23:37 -26.24613 114.72206 39014 ft 482 kts 154°
2026-04-28 23:38 -26.30106 114.76495 39013 ft 482 kts 154°
2026-04-28 23:38 -26.35600 114.80789 39017 ft 482 kts 154°
2026-04-28 23:39 -26.41086 114.85082 39016 ft 482 kts 154°
2026-04-28 23:39 -26.46574 114.89382 39017 ft 482 kts 154°
2026-04-28 23:40 -26.52072 114.93694 39017 ft 482 kts 154°
2026-04-28 23:40 -26.57524 114.97977 39018 ft 482 kts 154°
2026-04-28 23:41 -26.63030 115.02307 39015 ft 482 kts 154°
2026-04-28 23:41 -26.68485 115.06601 39021 ft 482 kts 154°
2026-04-28 23:42 -26.73972 115.10926 39016 ft 482 kts 154°
2026-04-28 23:42 -26.79463 115.15259 39020 ft 482 kts 154°
2026-04-28 23:43 -26.84949 115.19594 39018 ft 483 kts 154°
2026-04-28 23:43 -26.90440 115.23937 39019 ft 483 kts 154°
2026-04-28 23:44 -26.95926 115.28283 39022 ft 483 kts 154°
2026-04-28 23:44 -27.01416 115.32636 39026 ft 483 kts 154°
2026-04-28 23:45 -27.06893 115.36985 39019 ft 483 kts 154°
2026-04-28 23:45 -27.12384 115.41350 39026 ft 483 kts 154°
2026-04-28 23:46 -27.17874 115.45719 39026 ft 484 kts 154°
2026-04-28 23:46 -27.23368 115.50097 39026 ft 484 kts 154°
2026-04-28 23:47 -27.28827 115.54454 39024 ft 484 kts 154°
2026-04-28 23:47 -27.34331 115.58851 39024 ft 484 kts 153°
2026-04-28 23:48 -27.39967 115.62869 39025 ft 475 kts 161°
2026-04-28 23:48 -27.45814 115.66305 39029 ft 473 kts 162°
2026-04-28 23:49 -27.51655 115.69634 39031 ft 473 kts 162°
2026-04-28 23:49 -27.57531 115.72983 39031 ft 473 kts 162°
2026-04-28 23:50 -27.63403 115.76347 39037 ft 473 kts 162°
2026-04-28 23:50 -27.69270 115.79720 39033 ft 474 kts 162°
2026-04-28 23:51 -27.75160 115.83112 39034 ft 474 kts 162°
2026-04-28 23:51 -27.80992 115.86474 39032 ft 474 kts 162°
2026-04-28 23:52 -27.86871 115.89866 39036 ft 474 kts 162°
2026-04-28 23:52 -27.92747 115.93262 39037 ft 474 kts 162°
2026-04-28 23:53 -27.98615 115.96658 39037 ft 473 kts 162°
2026-04-28 23:53 -28.04484 116.00058 39038 ft 473 kts 162°
2026-04-28 23:54 -28.10343 116.03457 39042 ft 473 kts 162°
2026-04-28 23:54 -28.16191 116.06852 39037 ft 472 kts 162°
2026-04-28 23:55 -28.22035 116.10249 39039 ft 472 kts 162°
2026-04-28 23:55 -28.27864 116.13642 39041 ft 472 kts 162°
2026-04-28 23:56 -28.33721 116.17056 39046 ft 472 kts 162°
2026-04-28 23:56 -28.39521 116.20441 39041 ft 472 kts 162°
2026-04-28 23:57 -28.45363 116.23853 39046 ft 472 kts 162°
2026-04-28 23:57 -28.51219 116.27279 39046 ft 473 kts 162°
2026-04-28 23:58 -28.57083 116.30714 39045 ft 473 kts 162°
2026-04-28 23:58 -28.62935 116.34146 39047 ft 473 kts 162°
2026-04-28 23:59 -28.68793 116.37586 39049 ft 474 kts 162°
2026-04-28 23:59 -28.74616 116.41011 39046 ft 474 kts 162°
2026-04-29 00:00 -28.80487 116.44467 39047 ft 475 kts 162°
2026-04-29 00:00 -28.86356 116.47926 39045 ft 475 kts 162°
2026-04-29 00:01 -28.92225 116.51390 39053 ft 475 kts 161°
2026-04-29 00:01 -28.98102 116.54863 39052 ft 475 kts 161°
2026-04-29 00:02 -29.03971 116.58337 39051 ft 475 kts 161°
2026-04-29 00:02 -29.08853 116.61230 39049 ft 474 kts 161°
2026-04-29 00:03 -29.15715 116.65070 39051 ft 465 kts 169°
2026-04-29 00:03 -29.18771 116.66120 39051 ft 454 kts 177°
2026-04-29 00:03 -29.21862 116.66638 39050 ft 443 kts 185°
2026-04-29 00:04 -29.26987 116.66712 39052 ft 438 kts 189°
2026-04-29 00:04 -29.33044 116.66539 39052 ft 437 kts 190°
2026-04-29 00:05 -29.39128 116.66330 39049 ft 438 kts 190°
2026-04-29 00:05 -29.45221 116.66147 39049 ft 438 kts 190°
2026-04-29 00:06 -29.51300 116.65982 39049 ft 439 kts 189°
2026-04-29 00:06 -29.57448 116.65820 39050 ft 439 kts 189°
2026-04-29 00:07 -29.63549 116.65658 39039 ft 440 kts 189°
2026-04-29 00:07 -29.66636 116.65572 38867 ft 449 kts 189°
2026-04-29 00:07 -29.69796 116.65478 38674 ft 458 kts 189°
2026-04-29 00:08 -29.73008 116.65385 38500 ft 464 kts 189°
2026-04-29 00:08 -29.76248 116.65299 38237 ft 465 kts 189°
2026-04-29 00:08 -29.79488 116.65217 37970 ft 465 kts 189°
2026-04-29 00:08 -29.82725 116.65136 37709 ft 466 kts 189°
2026-04-29 00:09 -29.85975 116.65053 37450 ft 467 kts 189°
2026-04-29 00:09 -29.89222 116.64968 37194 ft 467 kts 189°
2026-04-29 00:09 -29.92478 116.64881 36940 ft 468 kts 189°
2026-04-29 00:09 -29.95737 116.64793 36689 ft 469 kts 189°
2026-04-29 00:10 -29.99002 116.64705 36441 ft 470 kts 189°
2026-04-29 00:10 -30.02274 116.64616 36196 ft 470 kts 189°
2026-04-29 00:10 -30.05502 116.64529 35959 ft 471 kts 189°
2026-04-29 00:10 -30.08806 116.64440 35718 ft 472 kts 189°
2026-04-29 00:11 -30.12083 116.64351 35482 ft 472 kts 189°
2026-04-29 00:11 -30.15374 116.64262 35247 ft 473 kts 189°
2026-04-29 00:11 -30.21959 116.64084 34782 ft 474 kts 189°
2026-04-29 00:12 -30.25262 116.63995 34550 ft 474 kts 189°
2026-04-29 00:12 -30.28568 116.63906 34321 ft 475 kts 190°
2026-04-29 00:12 -30.31877 116.63816 34093 ft 476 kts 190°
2026-04-29 00:12 -30.35185 116.63726 33840 ft 476 kts 190°
2026-04-29 00:13 -30.38500 116.63634 33574 ft 477 kts 189°
2026-04-29 00:13 -30.41817 116.63541 33311 ft 477 kts 189°
2026-04-29 00:13 -30.45142 116.63449 33074 ft 478 kts 189°
2026-04-29 00:13 -30.48470 116.63358 32815 ft 478 kts 189°
2026-04-29 00:14 -30.51809 116.63262 32561 ft 478 kts 189°
2026-04-29 00:14 -30.55050 116.62897 32318 ft 470 kts 197°
2026-04-29 00:14 -30.58196 116.62023 32075 ft 464 kts 202°
2026-04-29 00:14 -30.61290 116.60923 31826 ft 464 kts 204°
2026-04-29 00:15 -30.64357 116.59755 31583 ft 464 kts 204°
2026-04-29 00:15 -30.67423 116.58551 31349 ft 465 kts 204°
2026-04-29 00:15 -30.70495 116.57332 31109 ft 466 kts 204°
2026-04-29 00:15 -30.73570 116.56115 30871 ft 467 kts 204°
2026-04-29 00:16 -30.76652 116.54901 30637 ft 468 kts 204°
2026-04-29 00:16 -30.79746 116.53688 30405 ft 469 kts 204°
2026-04-29 00:16 -30.82847 116.52485 30174 ft 471 kts 203°
2026-04-29 00:16 -30.85956 116.51274 29911 ft 471 kts 203°
2026-04-29 00:17 -30.89037 116.50071 29645 ft 472 kts 203°
2026-04-29 00:17 -30.92152 116.48853 29370 ft 471 kts 203°
2026-04-29 00:17 -30.95259 116.47638 29108 ft 470 kts 203°
2026-04-29 00:17 -30.98359 116.46425 28843 ft 469 kts 203°
2026-04-29 00:18 -31.01396 116.45236 28529 ft 466 kts 203°
2026-04-29 00:18 -31.04502 116.44023 27938 ft 461 kts 202°
2026-04-29 00:18 -31.07526 116.42840 27318 ft 457 kts 202°
2026-04-29 00:18 -31.10506 116.41669 26707 ft 454 kts 202°
2026-04-29 00:19 -31.13513 116.40486 26090 ft 451 kts 202°
2026-04-29 00:19 -31.16477 116.39320 25465 ft 448 kts 202°
2026-04-29 00:19 -31.19436 116.38156 24860 ft 446 kts 202°
2026-04-29 00:19 -31.22329 116.37017 24258 ft 444 kts 202°
2026-04-29 00:20 -31.25257 116.35863 23658 ft 442 kts 201°
2026-04-29 00:20 -31.28167 116.34717 22973 ft 439 kts 201°
2026-04-29 00:20 -31.31051 116.33581 22370 ft 435 kts 201°
2026-04-29 00:20 -31.33907 116.32455 21772 ft 431 kts 201°
2026-04-29 00:21 -31.36727 116.31342 21197 ft 427 kts 201°
2026-04-29 00:21 -31.39539 116.30233 20629 ft 423 kts 201°
2026-04-29 00:21 -31.42265 116.28974 20036 ft 417 kts 208°
2026-04-29 00:21 -31.44820 116.27409 19449 ft 413 kts 211°
2026-04-29 00:22 -31.47328 116.25794 18870 ft 411 kts 211°
2026-04-29 00:22 -31.49795 116.24204 18297 ft 408 kts 211°
2026-04-29 00:22 -31.52286 116.22605 17647 ft 406 kts 211°
2026-04-29 00:22 -31.54747 116.21027 17049 ft 402 kts 210°
2026-04-29 00:23 -31.57194 116.19459 16461 ft 398 kts 210°
2026-04-29 00:23 -31.59613 116.17907 15879 ft 395 kts 210°
2026-04-29 00:23 -31.62016 116.16366 15290 ft 392 kts 210°
2026-04-29 00:23 -31.64408 116.14831 14690 ft 390 kts 210°
2026-04-29 00:24 -31.66785 116.13307 14100 ft 388 kts 210°
2026-04-29 00:24 -31.69147 116.11789 13470 ft 386 kts 210°
2026-04-29 00:24 -31.71490 116.10283 12850 ft 382 kts 210°
2026-04-29 00:24 -31.73816 116.08795 12251 ft 378 kts 210°
2026-04-29 00:25 -31.76244 116.07641 11732 ft 376 kts 195°
2026-04-29 00:25 -31.78765 116.07055 11565 ft 362 kts 192°
2026-04-29 00:25 -31.81196 116.06574 11446 ft 348 kts 189°
2026-04-29 00:25 -31.83537 116.06610 11314 ft 338 kts 171°
2026-04-29 00:26 -31.85728 116.07478 11189 ft 327 kts 158°
2026-04-29 00:26 -31.87774 116.08544 11054 ft 316 kts 158°
2026-04-29 00:26 -31.89754 116.09574 10912 ft 305 kts 158°
2026-04-29 00:26 -31.91672 116.10564 10705 ft 298 kts 159°
2026-04-29 00:27 -31.93565 116.11534 10368 ft 296 kts 159°
2026-04-29 00:27 -31.95445 116.12497 10035 ft 294 kts 159°
2026-04-29 00:27 -31.97321 116.13457 9704 ft 296 kts 159°
2026-04-29 00:27 -31.99254 116.14376 9378 ft 300 kts 162°
2026-04-29 00:28 -32.01211 116.15217 9061 ft 299 kts 162°
2026-04-29 00:28 -32.03143 116.16048 8744 ft 297 kts 162°
2026-04-29 00:28 -32.05077 116.16891 8438 ft 295 kts 161°
2026-04-29 00:28 -32.07036 116.17559 8115 ft 291 kts 175°
2026-04-29 00:29 -32.09031 116.17404 7822 ft 285 kts 194°
2026-04-29 00:29 -32.10952 116.16873 7516 ft 284 kts 196°
2026-04-29 00:29 -32.12863 116.16321 7214 ft 283 kts 195°
2026-04-29 00:29 -32.14777 116.15781 6923 ft 281 kts 195°
2026-04-29 00:30 -32.16673 116.15228 6604 ft 279 kts 198°
2026-04-29 00:30 -32.17846 116.14646 6391 ft 277 kts 213°
2026-04-29 00:30 -32.19470 116.12407 5968 ft 270 kts 250°
2026-04-29 00:30 -32.19788 116.10255 5731 ft 263 kts 269°
2026-04-29 00:31 -32.19799 116.08130 5597 ft 253 kts 270°
2026-04-29 00:31 -32.19810 116.06087 5393 ft 247 kts 270°
2026-04-29 00:31 -32.19829 116.04077 5132 ft 246 kts 270°
2026-04-29 00:31 -32.19683 116.02070 4853 ft 245 kts 282°
2026-04-29 00:32 -32.19275 116.00113 4557 ft 245 kts 286°
2026-04-29 00:32 -32.18838 115.98177 4264 ft 244 kts 285°
2026-04-29 00:32 -32.18407 115.96244 3979 ft 243 kts 285°
2026-04-29 00:32 -32.17984 115.94321 3708 ft 242 kts 285°
2026-04-29 00:33 -32.17510 115.92427 3511 ft 235 kts 292°
2026-04-29 00:33 -32.16491 115.91016 3364 ft 224 kts 331°
2026-04-29 00:33 -32.15044 115.90519 3221 ft 214 kts 355°
2026-04-29 00:33 -32.13620 115.90697 3119 ft 205 kts 15°
2026-04-29 00:34 -32.12259 115.91186 3040 ft 203 kts 15°
2026-04-29 00:34 -32.10882 115.91609 2995 ft 205 kts 13°
2026-04-29 00:34 -32.09504 115.91996 2814 ft 200 kts 12°
2026-04-29 00:34 -32.08167 115.92366 2551 ft 194 kts 13°
2026-04-29 00:35 -32.06893 115.92742 2302 ft 184 kts 14°
2026-04-29 00:35 -32.05684 115.93099 2049 ft 173 kts 14°
2026-04-29 00:35 -32.04554 115.93429 1821 ft 161 kts 14°
2026-04-29 00:35 -32.03499 115.93737 1610 ft 151 kts 14°
2026-04-29 00:36 -32.02511 115.94027 1415 ft 143 kts 14°
2026-04-29 00:36 -32.01544 115.94310 1232 ft 144 kts 14°
2026-04-29 00:36 -32.00570 115.94595 1043 ft 145 kts 14°
2026-04-29 00:36 -31.99587 115.94885 882 ft 146 kts 14°
2026-04-29 00:37 -31.98596 115.95172 706 ft 148 kts 13°
2026-04-29 00:37 -31.97597 115.95460 457 ft 147 kts 15°
2026-04-29 00:37 -31.96626 115.95760 300 ft 146 kts 15°
2026-04-29 00:37 -31.95611 115.96047 98 ft 147 kts 13°
2026-04-29 00:38 -31.94697 115.96311 61 ft 118 kts 14°
2026-04-29 00:38 -31.94188 115.96460 68 ft 38 kts 14°
2026-04-29 00:38 -31.93934 115.96534 65 ft 37 kts 14°
2026-04-29 00:38 -31.93709 115.96598 63 ft 19 kts 14°
2026-04-29 00:39 -31.93597 115.96631 58 ft 18 kts 14°
2026-04-29 00:39 -31.93488 115.96695 57 ft 18 kts 56°
2026-04-29 00:39 -31.93416 115.96834 55 ft 21 kts 58°
2026-04-29 00:39 -31.93356 115.96967 61 ft 14 kts 76°
2026-04-29 00:40 -31.93393 115.97037 68 ft 9 kts 146°
2026-04-29 00:40 -31.93441 115.97071 62 ft 8 kts 149°
2026-04-29 00:40 -31.93490 115.97106 67 ft 10 kts 149°
2026-04-29 00:40 -31.93556 115.97153 61 ft 13 kts 149°
2026-04-29 00:41 -31.93640 115.97212 62 ft 15 kts 149°
2026-04-29 00:41 -31.93703 115.97257 60 ft 17 kts 149°
2026-04-29 00:41 -31.93844 115.97355 60 ft 18 kts 149°
2026-04-29 00:41 -31.93915 115.97430 62 ft 10 kts 133°
2026-04-29 00:42 -31.93964 115.97446 67 ft 7 kts 168°
2026-04-29 00:42 -31.93999 115.97453 68 ft 0 kts 174°
2026-04-29 00:42 -31.94005 115.97454 67 ft 0 kts 174°